[[{"header":{"parameterUnit":"m.s-1","parameterCategory":1,"la1":30.2991,"la2":30.254,"lo1":-89.0895,"lo2":-89.0444,"dy":0.0017,"dx":0.0017,"nx":28,"ny":28,"refTime":"2025-06-02T03:00:00:Z","depth":0,"parameterNumber":2,"parameterNumberName":"U-component_of_WINDS"},"data":[0,0,0,0,0,0,0,0,0,0,0,0,0,0,0,0,0,0,0,0,0,0,0,0,0,0,0,0,0,0,0,0,0,0,0,0,0,0,0,0,0,0,0,0,0,0,0,0,0,0,0,0,0,0,0,0,0,0,-2.5879,-2.5879,0,-2.5873,-2.5873,-2.5873,-2.5816,-2.5815,-2.5813,-2.5812,-2.5808,-2.5809,-2.581,0,0,0,0,0,0,0,0,0,0,0,0,0,-2.5847,-2.5848,-2.5879,-2.5879,-2.5879,-2.5873,-2.5873,-2.5873,-2.5816,-2.5815,-2.5813,-2.5811,-2.5808,-2.5809,-2.5811,0,0,0,0,0,0,0,0,0,0,0,0,0,-2.5853,-2.5848,-2.5879,-2.585,-2.5848,-2.5873,-2.5873,-2.5873,-2.5817,-2.5815,-2.5813,-2.5811,-2.5807,-2.5809,-2.5811,-2.5864,0,0,-2.5816,-2.5817,0,0,0,0,0,0,0,0,-2.5853,-2.5854,-2.5855,-2.5852,-2.5849,-2.5843,-2.586,-2.587,-2.5817,-2.5829,-2.5812,-2.581,-2.5822,-2.5822,-2.5826,-2.5864,-2.5864,-2.5816,-2.5818,-2.5818,-2.5819,0,0,0,0,0,0,0,-2.5852,-2.5854,-2.5877,-2.5855,-2.5852,-2.5839,-2.5837,-2.5861,-2.5837,-2.5827,-2.5823,-2.5823,-2.582,-2.5824,-2.5825,-2.5864,-2.5816,-2.5818,-2.5819,-2.582,-2.5948,-2.595,0,0,0,0,0,0,-2.5855,-2.5854,-2.5877,-2.5877,-2.5846,-2.5841,-2.5839,-2.5847,-2.5837,-2.5833,-2.5825,-2.5821,-2.5822,-2.5823,-2.5825,-2.5887,-2.5818,-2.582,-2.5821,-2.5946,-2.5948,-2.5951,0,0,0,0,0,0,-2.5855,-2.5858,-2.5877,-2.5864,-2.5866,-2.5844,-2.5853,-2.5848,-2.5852,-2.5835,-2.5831,-2.5834,-2.582,-2.5822,-2.5855,-2.5887,-2.5821,-2.5823,-2.5943,-2.5947,-2.595,-2.6013,0,0,0,0,0,0,-2.5854,-2.5858,-2.5877,-2.5865,-2.5867,-2.5907,-2.5855,-2.585,-2.5855,-2.5849,-2.5842,-2.5838,-2.5819,-2.5853,-2.5857,-2.5888,-2.5824,-2.594,-2.5945,-2.5949,-2.6008,-2.6018,-2.6027,0,0,0,0,0,-2.5853,-2.5895,-2.5878,-2.5881,-2.589,-2.5908,-2.5909,-2.5885,-2.5858,-2.5878,-2.5867,-2.5839,-2.5883,-2.5857,-2.5861,-2.5893,-2.5938,-2.5943,-2.5948,-2.6004,-2.6016,-2.6027,0,0,0,0,0,0,-2.5912,-2.5893,-2.5874,-2.5913,-2.5913,-2.5899,-2.5922,-2.5899,-2.5907,-2.5901,-2.5872,-2.5871,-2.5909,-2.5904,-2.5875,-2.5945,-2.5906,-2.5912,-2.5946,-2.5958,-2.5967,-2.5967,-2.5825,0,0,0,0,0,-2.5929,-2.5945,-2.5928,-2.5964,-2.5965,-2.5944,-2.5952,-2.5933,-2.5932,-2.5932,-2.5923,-2.5924,-2.5938,-2.5948,-2.596,-2.6008,-2.6006,-2.6032,-2.6041,-2.6049,-2.6055,-2.6081,-2.6093,-2.5968,-2.5968,-2.5968,0,0,-2.5965,-2.5957,-2.5969,-2.5976,-2.5973,-2.5992,-2.5944,-2.5965,-2.5979,-2.5935,-2.5965,-2.596,-2.5959,-2.6,-2.6017,-2.5997,-2.6089,-2.6056,-2.6062,-2.6064,-2.6088,-2.61,-2.611,-2.5972,-2.5971,-2.597,0,0,-2.604,-2.6035,-2.6065,-2.6064,-2.6061,-2.6047,-2.6055,-2.6045,-2.6039,-2.6069,-2.6037,-2.6054,-2.6079,-2.608,-2.6084,-2.6162,-2.6137,-2.6167,-2.6216,-2.6243,-2.6252,-2.6261,-2.629,-2.63,-2.6173,-2.6173,-2.6173,0,-2.6086,-2.6111,-2.6084,-2.6108,-2.6112,-2.6074,-2.6105,-2.6106,-2.6107,-2.6112,-2.6089,-2.6121,-2.6117,-2.6159,-2.6178,-2.6182,-2.6191,-2.6167,-2.6253,-2.6261,-2.6269,-2.6296,-2.6307,-2.6177,-2.6176,-2.6176,-2.6176,0,-2.6167,-2.6185,-2.621,-2.6212,-2.622,-2.6248,-2.6227,-2.6238,-2.622,-2.621,-2.6242,-2.6237,-2.6248,-2.6257,-2.6239,-2.6296,-2.6284,-2.6258,-2.6217,-2.6285,-2.631,-2.632,-2.6182,-2.6181,-2.618,-2.6179,0,0,-2.6277,-2.6265,-2.6275,-2.6276,-2.6271,-2.6285,-2.6312,-2.6322,-2.6333,-2.6337,-2.6359,-2.6382,-2.6358,-2.6363,-2.6346,-2.6369,-2.6433,-2.634,-2.6339,-2.6357,-2.6497,-2.6516,-2.6529,-2.6416,-2.6418,-2.642,-2.6497,0,-2.6349,-2.6393,-2.6371,-2.6418,-2.6435,-2.64,-2.6423,-2.6424,-2.6415,-2.643,-2.6421,-2.6438,-2.6405,-2.6407,-2.6429,-2.642,-2.646,-2.6414,-2.6438,-2.6439,-2.6439,-2.6541,-2.6562,-2.6635,-2.6506,-2.6508,-2.6509,0,-2.6439,-2.6446,-2.6494,-2.6488,-2.6494,-2.6515,-2.6524,-2.6538,-2.6539,-2.6531,-2.6538,-2.6516,-2.6543,-2.6504,-2.6542,-2.6512,-2.6521,-2.6518,-2.6521,-2.6522,-2.6478,-2.6545,-2.6657,-2.6668,-2.6524,-2.6523,-2.6522,0,-2.6515,-2.6536,-2.6568,-2.657,-2.6563,-2.6579,-2.6577,-2.6576,-2.6584,-2.6593,-2.6598,-2.661,-2.6616,-2.6627,-2.661,-2.6583,-2.6651,-2.661,-2.6647,-2.6647,-2.6662,-2.6661,-2.6777,-2.6668,-2.6668,-2.6668,-2.6667,0,-2.6598,-2.6629,-2.6602,-2.6622,-2.6657,-2.6632,-2.6668,-2.6662,-2.6662,-2.6681,-2.6652,-2.6671,-2.6647,-2.6665,-2.6652,-2.6686,-2.6689,-2.6685,-2.6681,-2.6687,-2.6688,-2.6692,-2.6687,-2.6671,-2.667,-2.6669,-2.6669,0,-2.6688,-2.6671,-2.6704,-2.6695,-2.6693,-2.6719,-2.6712,-2.6731,-2.6722,-2.6746,-2.6751,-2.6736,-2.6755,-2.6739,-2.6758,-2.6749,-2.6795,-2.6784,-2.6795,-2.6792,-2.6829,-2.6826,-2.6951,-2.6967,-2.6848,-2.685,-2.685,0,-2.6741,-2.6764,-2.6758,-2.6769,-2.6769,-2.6786,-2.6794,-2.6772,-2.6783,-2.6787,-2.6806,-2.6822,-2.6834,-2.6867,-2.6858,-2.6873,-2.6862,-2.6905,-2.6864,-2.6871,-2.6864,-2.6862,-2.6865,-2.6914,-2.6915,-2.6916,-2.6917,0,-2.6839,-2.683,-2.6842,-2.6853,-2.6864,-2.6871,-2.6877,-2.6887,-2.6865,-2.6879,-2.6897,-2.6907,-2.6926,-2.6944,-2.6956,-2.6956,-2.6934,-2.693,-2.694,-2.6946,-2.6951,-2.695,-2.6817,-2.6927,-2.6926,-2.6925,-2.6925,-2.6924,-2.6912,-2.6932,-2.6931,-2.6947,-2.6948,-2.6955,-2.6972,-2.6965,-2.698,-2.6993,-2.698,-2.7004,-2.7006,-2.702,-2.7023,-2.7042,-2.7025,-2.7038,-2.7041,-2.7045,-2.705,-2.6949,-2.7044,-2.7044,-2.7044,-2.7044,-2.7043,0,-2.7009,-2.7007,-2.7021,-2.703,-2.7043,-2.702,-2.7026,-2.7039,-2.7059,-2.7063,-2.7076,-2.7099,-2.7116,-2.711,-2.7126,-2.7143,-2.7133,-2.7148,-2.7146,-2.7147,-2.7065,-2.7056,-2.7155,-2.7155,-2.7155,-2.7155,-2.7155,-2.7155,-2.706,-2.7092,-2.7084,-2.7118,-2.7116,-2.7138,-2.7143,-2.7149,-2.7152,-2.7179,-2.7193,-2.7189,-2.7189,-2.7205,-2.7221,-2.7219,-2.7226,-2.7245,-2.7239,-2.7163,-2.7152,-2.7142,-2.7133,-2.7247,-2.7247,-2.7319,-2.732,-2.7321]},{"header":{"parameterUnit":"m.s-1","parameterCategory":1,"la1":30.2991,"la2":30.254,"lo1":-89.0895,"lo2":-89.0444,"dy":0.0017,"dx":0.0017,"nx":28,"ny":28,"refTime":"2025-06-02T03:00:00:Z","depth":0,"parameterNumber":3,"parameterNumberName":"V-component_of_WINDS"},"data":[0,0,0,0,0,0,0,0,0,0,0,0,0,0,0,0,0,0,0,0,0,0,0,0,0,0,0,0,0,0,0,0,0,0,0,0,0,0,0,0,0,0,0,0,0,0,0,0,0,0,0,0,0,0,0,0,0,0,3.8783,3.8784,0,3.8797,3.8797,3.8797,3.8814,3.8814,3.8814,3.8815,3.8825,3.8826,3.8826,0,0,0,0,0,0,0,0,0,0,0,0,0,3.877,3.8771,3.8783,3.8784,3.8784,3.8797,3.8797,3.8797,3.8814,3.8814,3.8814,3.8815,3.8825,3.8826,3.8826,0,0,0,0,0,0,0,0,0,0,0,0,0,3.8779,3.8771,3.8783,3.8794,3.8795,3.8797,3.8797,3.8797,3.8814,3.8814,3.8814,3.8815,3.8825,3.8826,3.8826,3.8818,0,0,3.8826,3.8826,0,0,0,0,0,0,0,0,3.8779,3.878,3.8792,3.8793,3.8794,3.8804,3.8796,3.8804,3.8814,3.8806,3.8815,3.8815,3.8818,3.8819,3.882,3.8818,3.8819,3.8826,3.8826,3.8826,3.8826,0,0,0,0,0,0,0,3.8778,3.8779,3.8789,3.8792,3.8793,3.8797,3.8799,3.8798,3.881,3.8807,3.8808,3.881,3.8819,3.882,3.882,3.8819,3.8826,3.8826,3.8826,3.8826,3.8812,3.8812,0,0,0,0,0,0,3.8776,3.8778,3.8788,3.8789,3.8787,3.8797,3.8799,3.88,3.881,3.8811,3.8809,3.8811,3.882,3.882,3.8821,3.8813,3.8826,3.8826,3.8826,3.8812,3.8812,3.8811,0,0,0,0,0,0,3.8776,3.8777,3.8788,3.8784,3.8786,3.8797,3.8798,3.88,3.8802,3.8812,3.8813,3.8809,3.882,3.8821,3.8819,3.8813,3.8826,3.8826,3.8813,3.8812,3.8812,3.8796,0,0,0,0,0,0,3.8775,3.8777,3.8774,3.8784,3.8786,3.8786,3.8798,3.88,3.8802,3.8804,3.8812,3.8813,3.882,3.8819,3.8819,3.8814,3.8826,3.8813,3.8813,3.8812,3.8797,3.8795,3.8793,0,0,0,0,0,3.8775,3.8768,3.8774,3.8775,3.8783,3.8785,3.8786,3.8796,3.8802,3.8799,3.8806,3.8813,3.8814,3.8818,3.8819,3.8813,3.8814,3.8813,3.8812,3.8798,3.8795,3.8793,0,0,0,0,0,0,3.8756,3.877,3.8776,3.8773,3.8778,3.8788,3.8785,3.8793,3.8795,3.8797,3.8807,3.8809,3.8805,3.8809,3.8814,3.8807,3.8815,3.8814,3.8804,3.8802,3.88,3.8799,3.8826,0,0,0,0,0,3.8752,3.8753,3.8765,3.8761,3.8763,3.8774,3.8775,3.8782,3.8787,3.8789,3.8795,3.88,3.8801,3.8802,3.8804,3.8798,3.88,3.8794,3.8792,3.8791,3.879,3.8787,3.8785,3.8808,3.8808,3.8808,0,0,3.8742,3.875,3.875,3.8757,3.8762,3.8763,3.8775,3.8775,3.8776,3.8789,3.8788,3.8792,3.8798,3.8794,3.8793,3.8797,3.8784,3.879,3.8788,3.8788,3.8786,3.8784,3.8782,3.8808,3.8808,3.8808,0,0,3.8725,3.8732,3.8729,3.8734,3.8742,3.8749,3.8749,3.8758,3.8762,3.8762,3.8772,3.8772,3.8775,3.8778,3.878,3.8767,3.8774,3.8767,3.8757,3.8754,3.8752,3.8751,3.8746,3.8744,3.8766,3.8766,3.8766,0,3.8712,3.8715,3.8727,3.8727,3.8729,3.8743,3.874,3.8744,3.8752,3.8753,3.8759,3.8762,3.8767,3.8765,3.8761,3.8763,3.8762,3.8766,3.8752,3.875,3.8749,3.8744,3.8743,3.8765,3.8765,3.8765,3.8766,0,3.8699,3.87,3.8697,3.8705,3.8708,3.8707,3.8718,3.8719,3.8726,3.8733,3.8732,3.8738,3.8742,3.8742,3.8748,3.8741,3.8743,3.875,3.8759,3.8746,3.8742,3.874,3.8764,3.8764,3.8765,3.8765,0,0,3.8669,3.8685,3.8684,3.8688,3.8698,3.87,3.8699,3.8704,3.8704,3.871,3.8709,3.8711,3.8718,3.8721,3.8728,3.8726,3.8715,3.8733,3.8733,3.8729,3.8707,3.8701,3.8699,3.872,3.872,3.8719,3.8706,0,3.8654,3.8654,3.8666,3.8663,3.8664,3.8678,3.8678,3.8684,3.869,3.8692,3.8699,3.87,3.8709,3.8711,3.871,3.8716,3.871,3.8718,3.8719,3.8719,3.8717,3.8697,3.8691,3.8678,3.8705,3.8704,3.8704,0,3.8636,3.8641,3.8639,3.8651,3.8652,3.8651,3.8657,3.8659,3.8666,3.8671,3.8675,3.8683,3.8683,3.8692,3.8692,3.8696,3.8698,3.8701,3.8701,3.8701,3.871,3.8696,3.8674,3.8672,3.8702,3.8702,3.8702,0,3.8614,3.8621,3.8621,3.8624,3.8638,3.8637,3.8642,3.865,3.8653,3.8658,3.8659,3.8664,3.8666,3.8669,3.8678,3.8684,3.8677,3.8686,3.868,3.868,3.8678,3.8678,3.8655,3.8679,3.8679,3.8679,3.8679,0,3.8596,3.8594,3.8612,3.8611,3.861,3.8623,3.862,3.8627,3.8634,3.8635,3.8647,3.8647,3.866,3.8662,3.8669,3.8668,3.8669,3.8673,3.8674,3.8671,3.8671,3.8672,3.8673,3.8679,3.8679,3.8679,3.8679,0,3.8571,3.8583,3.8584,3.8597,3.86,3.8599,3.861,3.861,3.8618,3.8619,3.862,3.8632,3.8635,3.8645,3.865,3.8655,3.8651,3.8655,3.8649,3.865,3.8643,3.8644,3.8621,3.8618,3.8644,3.8644,3.8643,0,3.8559,3.8558,3.8571,3.8574,3.8579,3.8582,3.8585,3.8598,3.86,3.8609,3.8608,3.8612,3.8616,3.862,3.8629,3.8633,3.8637,3.8629,3.8637,3.8634,3.8636,3.8636,3.8636,3.8626,3.8626,3.8626,3.8625,0,3.8535,3.8541,3.8546,3.8552,3.8556,3.8562,3.8568,3.8569,3.8583,3.8586,3.8589,3.8593,3.8599,3.8602,3.8608,3.8613,3.8621,3.8623,3.8622,3.8618,3.8614,3.8616,3.8643,3.8623,3.8623,3.8623,3.8624,3.8624,3.8516,3.8516,3.8526,3.853,3.8537,3.8543,3.8544,3.8553,3.8556,3.8563,3.857,3.8573,3.8581,3.859,3.8594,3.8597,3.8601,3.8599,3.8599,3.8598,3.8596,3.8615,3.8598,3.8598,3.8598,3.8598,3.8598,0,3.8492,3.85,3.8504,3.8513,3.8517,3.8526,3.8534,3.8536,3.8539,3.8546,3.8551,3.8555,3.8559,3.8569,3.8574,3.8574,3.8578,3.8575,3.8574,3.8575,3.8592,3.8593,3.8571,3.8571,3.8571,3.8571,3.8571,3.8571,3.848,3.8481,3.8489,3.8493,3.85,3.8504,3.8508,3.8513,3.8519,3.8524,3.8528,3.8535,3.8543,3.8549,3.8553,3.8556,3.8557,3.8553,3.8556,3.8572,3.8574,3.8576,3.8577,3.8553,3.8553,3.8539,3.8539,3.8539]}]]